Regional Weather Roundup
Issued by NWS

Home | Current Version | Previous Version | Graphics & Text | Print | Product List | Glossary On
Versions: 1 2 3 4 5 6 7 8 9 10 11 12 13 14 15 16 17 18 19 20 21 22 23 24 25 26 27 28 29 30 31 32 33 34 35 36 37 38 39 40 41 42 43 44 45 46 47 48 49 50
000
ASUS45 KBOI 301010
RWRID
WEATHER ROUNDUP FOR IDAHO
NATIONAL WEATHER SERVICE BOISE ID
400 AM MDT SAT AUG 30 2014

NOTE: "FAIR" INDICATES FEW OR NO CLOUDS BELOW 12000 FEET
WITH NO SIGNIFICANT WEATHER AND/OR OBSTRUCTIONS TO VISIBILITY

IDZ012-014-301100-
SOUTHWEST IDAHO


CITY           SKY/WX    TMP DP  RH WIND       PRES   REMARKS
BOISE          FAIR      67  44  43 W7        29.83S
CALDWELL       FAIR      66  39  37 W12       29.85R
MOUNTAIN HOME  FAIR      69  42  36 NW17      29.82R
$$

IDZ016-017-301100-
SOUTHCENTRAL IDAHO


CITY           SKY/WX    TMP DP  RH WIND       PRES   REMARKS
BURLEY         FAIR      58  47  66 W3        29.85S
JEROME         FAIR      61  47  59 NE9       29.86R
TWIN FALLS     FAIR      67  39  35 SW10      29.87R
$$

IDZ019>023-301100-
SOUTHEAST IDAHO


CITY           SKY/WX    TMP DP  RH WIND       PRES   REMARKS
IDAHO FALLS    MOCLDY    62  46  55 NE3       29.89F
POCATELLO      CLEAR     55  48  77 CALM      29.88F
REXBURG        MOCLDY    58  47  66 NE6       29.91F
$$

IDZ006-010-011-018-031-032-301100-
CENTRAL IDAHO MOUNTAINS


CITY           SKY/WX    TMP DP  RH WIND       PRES   REMARKS
MCCALL         FAIR      57  42  57 NE3       29.94S
HAILEY         FAIR      55  50  82 NW10      29.97S
STANLEY          N/A     50  48  93 CALM      30.05F
SALMON         MOCLDY    66  43  42 E3        29.91R
CHALLIS        MOCLDY    57  51  80 NW3       29.97F
$$

IDZ002-004-006-007-026-301100-
NORTHERN IDAHO


CITY           SKY/WX    TMP DP  RH WIND       PRES   REMARKS
LEWISTON       FAIR      67  44  43 CALM      29.88R
LOWELL           N/A     61  54  77 CALM      29.90R
COEUR D`ALENE  FAIR      57  41  54 CALM      29.84S
MULLAN PASS    CLOUDY    50  38  63 VRB6      29.96F
$$



USA.gov is the U.S. government's official web portal to all federal, state and local government web resources and services.